Location: Newark
(54.6833°N, 25.2833°E)
Time: 02:55:57
(UTC+00:00)

A-11 Canister half - Pass Details

Date: 24 January 2021
Orbit: 1525 x 1684 km, 47.3° (Epoch: 05 March)

Event Time Altitude Azimuth Distance (km) Brightness Sun altitude
Rises 16:34:23 0° 268° (W) 4,714 13.3 -15.9°
Reaches altitude 10° 16:37:29 10° 264° (W) 3,747 12.4 -16.3°
Maximum altitude 16:46:35 54° 191° (S) 1,885 9.5 -17.6°
Enters shadow 16:54:34 15° 121° (ESE) 3,432 10.4 -18.8°
